| time (UTC) | temp F | wind direction | speed MPH | gust MPH | rain 1hr in | rain 24hr in | rain mn in | humidity % | barometer mb |
| 20260906112522 | 72 | 77 | 2.0 | 3.0 | 0.00 | 0.00 | 0.00 | 90 | 1011.5 |
| 20260906112019 | 73 | 63 | 0.0 | 2.0 | 0.00 | 0.00 | 0.00 | 89 | 1011.4 |
| 20260906111513 | 73 | 55 | 1.0 | 2.0 | 0.00 | 0.00 | 0.00 | 89 | 1011.4 |
| 20260906111008 | 73 | 79 | 2.0 | 2.0 | 0.00 | 0.00 | 0.00 | 89 | 1011.3 |
| 20260906110502 | 73 | 60 | 2.0 | 2.0 | 0.00 | 0.00 | 0.00 | 89 | 1011.3 |
| 20260906110001 | 73 | 47 | 2.0 | 3.0 | 0.00 | 0.00 | 0.00 | 88 | 1011.2 |
| 20260906105458 | 73 | 66 | 2.0 | 2.0 | 0.00 | 0.00 | 0.00 | 88 | 1011.2 |
| 20260906104953 | 73 | 88 | 2.0 | 2.0 | 0.00 | 0.00 | 0.00 | 88 | 1011.2 |
| 20260906104451 | 73 | 339 | 1.0 | 2.0 | 0.00 | 0.00 | 0.00 | 88 | 1011.3 |
| 20260906103951 | 73 | 63 | 0.0 | 3.0 | 0.00 | 0.00 | 0.00 | 87 | 1011.3 |
| 20260906103449 | 73 | 79 | 2.0 | 3.0 | 0.00 | 0.00 | 0.00 | 87 | 1011.1 |
| 20260906102944 | 73 | 76 | 1.0 | 2.0 | 0.00 | 0.00 | 0.00 | 87 | 1011.1 |
| 20260906102439 | 73 | 54 | 2.0 | 3.0 | 0.00 | 0.00 | 0.00 | 87 | 1011.0 |
| 20260906101939 | 73 | 62 | 2.0 | 2.0 | 0.00 | 0.00 | 0.00 | 86 | 1011.3 |
| 20260906101434 | 73 | 92 | 1.0 | 3.0 | 0.00 | 0.00 | 0.00 | 86 | 1011.3 |
| 20260906100929 | 73 | 66 | 1.0 | 2.0 | 0.00 | 0.00 | 0.00 | 85 | 1011.2 |
| 20260906100429 | 74 | 70 | 2.0 | 2.0 | 0.00 | 0.00 | 0.00 | 85 | 1011.2 |
| 20260906095924 | 74 | 67 | 2.0 | 3.0 | 0.00 | 0.00 | 0.00 | 84 | 1011.0 |
| 20260906095420 | 74 | 69 | 2.0 | 2.0 | 0.00 | 0.00 | 0.00 | 84 | 1011.0 |
| 20260906094920 | 74 | 79 | 2.0 | 2.0 | 0.00 | 0.00 | 0.00 | 84 | 1011.0 |
| 20260906094414 | 74 | 66 | 2.0 | 3.0 | 0.00 | 0.00 | 0.00 | 83 | 1011.0 |
| 20260906093910 | 74 | 33 | 1.0 | 3.0 | 0.00 | 0.00 | 0.00 | 83 | 1010.9 |
| 20260906093407 | 75 | 72 | 1.0 | 3.0 | 0.00 | 0.00 | 0.00 | 82 | 1010.8 |
| 20260906092901 | 75 | 87 | 2.0 | 3.0 | 0.00 | 0.00 | 0.00 | 82 | 1010.9 |
| 20260906092400 | 75 | 13 | 0.0 | 1.0 | 0.00 | 0.00 | 0.00 | 83 | 1010.9 |
| 20260906091856 | 75 | 104 | 0.0 | 2.0 | 0.00 | 0.00 | 0.00 | 82 | 1011.0 |
| 20260906091352 | 75 | 35 | 0.0 | 2.0 | 0.00 | 0.00 | 0.00 | 82 | 1011.0 |
| 20260906090848 | 75 | 82 | 2.0 | 3.0 | 0.00 | 0.00 | 0.00 | 81 | 1011.0 |
| 20260906090347 | 75 | 76 | 0.0 | 2.0 | 0.00 | 0.00 | 0.00 | 81 | 1010.9 |
| 20260906085842 | 75 | 48 | 1.0 | 2.0 | 0.00 | 0.00 | 0.00 | 80 | 1011.0 |
| 20260906085341 | 76 | 69 | 3.0 | 3.0 | 0.00 | 0.00 | 0.00 | 80 | 1011.0 |
| 20260906084836 | 76 | 56 | 1.0 | 2.0 | 0.00 | 0.00 | 0.00 | 80 | 1011.0 |
| 20260906084336 | 76 | 103 | 2.0 | 4.0 | 0.00 | 0.00 | 0.00 | 80 | 1010.9 |
| 20260906083830 | 75 | 198 | 0.0 | 4.0 | 0.00 | 0.00 | 0.00 | 82 | 1011.0 |
| 20260906083326 | 75 | 42 | 2.0 | 2.0 | 0.00 | 0.00 | 0.00 | 83 | 1010.9 |
| 20260906082826 | 75 | 103 | 1.0 | 2.0 | 0.00 | 0.00 | 0.00 | 83 | 1010.9 |
| 20260906082321 | 75 | 89 | 0.0 | 1.0 | 0.00 | 0.00 | 0.00 | 82 | 1010.9 |
| 20260906081817 | 75 | 238 | 0.0 | 2.0 | 0.00 | 0.00 | 0.00 | 82 | 1011.0 |
| 20260906081313 | 75 | 117 | 2.0 | 3.0 | 0.00 | 0.00 | 0.00 | 82 | 1010.7 |
| 20260906080809 | 76 | 74 | 0.0 | 2.0 | 0.00 | 0.00 | 0.00 | 81 | 1010.9 |
| 20260906080305 | 76 | 96 | 2.0 | 2.0 | 0.00 | 0.00 | 0.00 | 81 | 1010.8 |
| 20260906075804 | 76 | 91 | 0.0 | 3.0 | 0.00 | 0.00 | 0.00 | 80 | 1010.8 |
| 20260906075306 | 76 | 20 | 1.0 | 2.0 | 0.00 | 0.00 | 0.00 | 80 | 1010.8 |
| 20260906074759 | 76 | 320 | 1.0 | 4.0 | 0.00 | 0.00 | 0.00 | 80 | 1010.9 |
| 20260906074259 | 76 | 101 | 0.0 | 4.0 | 0.00 | 0.00 | 0.00 | 79 | 1010.9 |
| 20260906073758 | 76 | 18 | 0.0 | 3.0 | 0.00 | 0.00 | 0.00 | 79 | 1010.9 |
| 20260906073253 | 76 | 128 | 2.0 | 5.0 | 0.00 | 0.00 | 0.00 | 78 | 1011.0 |
| 20260906072749 | 76 | 168 | 1.0 | 3.0 | 0.00 | 0.00 | 0.00 | 77 | 1011.0 |
| 20260906072244 | 77 | 75 | 1.0 | 2.0 | 0.00 | 0.00 | 0.00 | 77 | 1011.0 |
| 20260906071740 | 77 | 106 | 0.0 | 2.0 | 0.00 | 0.00 | 0.00 | 77 | 1011.0 |
| 20260906071240 | 77 | 128 | 1.0 | 3.0 | 0.00 | 0.00 | 0.00 | 76 | 1011.0 |
| 20260906070737 | 77 | 79 | 2.0 | 2.0 | 0.00 | 0.00 | 0.00 | 76 | 1011.0 |
| 20260906070232 | 77 | 94 | 0.0 | 3.0 | 0.00 | 0.00 | 0.00 | 75 | 1011.4 |
| 20260906065732 | 77 | 68 | 1.0 | 2.0 | 0.00 | 0.00 | 0.00 | 75 | 1011.1 |
| 20260906065227 | 77 | 107 | 3.0 | 3.0 | 0.00 | 0.00 | 0.00 | 75 | 1011.2 |
| 20260906064723 | 78 | 66 | 1.0 | 2.0 | 0.00 | 0.00 | 0.00 | 74 | 1011.1 |
| 20260906064218 | 78 | 70 | 0.0 | 1.0 | 0.00 | 0.00 | 0.00 | 73 | 1011.1 |
| 20260906063713 | 78 | 63 | 1.0 | 2.0 | 0.00 | 0.00 | 0.00 | 73 | 1011.2 |
| 20260906063209 | 78 | 136 | 2.0 | 3.0 | 0.00 | 0.00 | 0.00 | 72 | 1011.1 |
| 20260906062704 | 79 | 127 | 2.0 | 4.0 | 0.00 | 0.00 | 0.00 | 71 | 1011.1 |
| 20260906062203 | 79 | 159 | 3.0 | 6.0 | 0.00 | 0.00 | 0.00 | 70 | 1011.4 |
| 20260906061659 | 79 | 121 | 5.0 | 6.0 | 0.00 | 0.00 | 0.00 | 69 | 1011.4 |
| 20260906061154 | 80 | 112 | 2.0 | 4.0 | 0.00 | 0.00 | 0.00 | 69 | 1011.3 |
| 20260906060651 | 80 | 127 | 2.0 | 3.0 | 0.00 | 0.00 | 0.00 | 69 | 1011.5 |
| 20260906060148 | 80 | 136 | 3.0 | 4.0 | 0.00 | 0.00 | 0.00 | 69 | 1011.9 |
| 20260906055643 | 80 | 168 | 3.0 | 4.0 | 0.00 | 0.00 | 0.00 | 71 | 1011.9 |
| 20260906055138 | 80 | 204 | 1.0 | 4.0 | 0.00 | 0.00 | 0.00 | 73 | 1011.9 |
| 20260906054633 | 80 | 111 | 4.0 | 7.0 | 0.00 | 0.00 | 0.00 | 73 | 1012.0 |
| 20260906054128 | 80 | 154 | 2.0 | 6.0 | 0.00 | 0.00 | 0.00 | 73 | 1012.1 |
| 20260906053626 | 80 | 92 | 1.0 | 3.0 | 0.00 | 0.00 | 0.00 | 74 | 1012.1 |
| 20260906053126 | 80 | 139 | 3.0 | 4.0 | 0.00 | 0.00 | 0.00 | 73 | 1012.1 |
| 20260906052621 | 80 | 198 | 2.0 | 4.0 | 0.00 | 0.00 | 0.00 | 73 | 1012.0 |
| 20260906052118 | 81 | 101 | 1.0 | 6.0 | 0.00 | 0.00 | 0.00 | 73 | 1011.9 |
| 20260906051613 | 80 | 58 | 2.0 | 8.0 | 0.00 | 0.00 | 0.00 | 72 | 1012.0 |
| 20260906051109 | 80 | 51 | 2.0 | 6.0 | 0.00 | 0.00 | 0.00 | 72 | 1012.0 |
| 20260906050604 | 80 | 72 | 4.0 | 6.0 | 0.00 | 0.00 | 0.00 | 71 | 1011.8 |
| 20260906050059 | 80 | 55 | 6.0 | 6.0 | 0.00 | 0.00 | 0.00 | 70 | 1012.0 |
| 20260906045557 | 81 | 76 | 3.0 | 6.0 | 0.00 | 0.00 | 0.00 | 70 | 1012.0 |
| 20260906045053 | 81 | 83 | 4.0 | 7.0 | 0.00 | 0.00 | 0.00 | 69 | 1012.0 |
| 20260906044548 | 81 | 33 | 2.0 | 5.0 | 0.00 | 0.00 | 0.00 | 72 | 1012.0 |
| 20260906044043 | 82 | 84 | 4.0 | 6.0 | 0.00 | 0.00 | 0.00 | 74 | 1011.7 |
| 20260906043539 | 82 | 29 | 2.0 | 4.0 | 0.00 | 0.00 | 0.00 | 73 | 1012.1 |
| 20260906043036 | 82 | 35 | 2.0 | 3.0 | 0.00 | 0.00 | 0.00 | 73 | 1011.6 |
| 20260906042534 | 82 | 119 | 2.0 | 3.0 | 0.00 | 0.00 | 0.00 | 73 | 1011.5 |
| 20260906042029 | 82 | 103 | 0.0 | 2.0 | 0.00 | 0.00 | 0.00 | 73 | 1011.1 |
| 20260906041525 | 82 | 62 | 1.0 | 5.0 | 0.00 | 0.00 | 0.00 | 74 | 1011.3 |
| 20260906041025 | 82 | 39 | 4.0 | 6.0 | 0.00 | 0.00 | 0.00 | 74 | 1011.4 |
| 20260906040520 | 82 | 50 | 2.0 | 6.0 | 0.00 | 0.00 | 0.00 | 74 | 1011.4 |
| 20260906040015 | 82 | 46 | 6.0 | 8.0 | 0.00 | 0.00 | 0.00 | 74 | 1011.2 |
| 20260906035511 | 82 | 49 | 2.0 | 6.0 | 0.00 | 0.00 | 0.00 | 74 | 1011.2 |
| 20260906035007 | 82 | 49 | 3.0 | 6.0 | 0.00 | 0.00 | 0.00 | 73 | 1011.4 |
| 20260906034506 | 82 | 72 | 2.0 | 5.0 | 0.00 | 0.00 | 0.00 | 72 | 1011.5 |
| 20260906034001 | 82 | 96 | 2.0 | 4.0 | 0.00 | 0.00 | 0.00 | 72 | 1011.5 |
| 20260906033456 | 82 | 93 | 3.0 | 5.0 | 0.00 | 0.00 | 0.00 | 72 | 1011.4 |
| 20260906032952 | 82 | 95 | 2.0 | 4.0 | 0.00 | 0.00 | 0.00 | 72 | 1011.5 |
| 20260906032449 | 82 | 17 | 2.0 | 4.0 | 0.00 | 0.00 | 0.00 | 73 | 1011.8 |
| 20260906031948 | 82 | 57 | 3.0 | 4.0 | 0.00 | 0.00 | 0.00 | 74 | 1011.6 |
| 20260906031444 | 82 | 65 | 3.0 | 4.0 | 0.00 | 0.00 | 0.00 | 73 | 1011.5 |
| 20260906030939 | 82 | 8 | 2.0 | 2.0 | 0.00 | 0.00 | 0.00 | 72 | 1010.9 |
| 20260906030434 | 83 | 76 | 1.0 | 3.0 | 0.00 | 0.00 | 0.00 | 70 | 1010.8 |
| 20260906025934 | 83 | 33 | 2.0 | 3.0 | 0.00 | 0.00 | 0.00 | 69 | 1011.0 |
| 20260906025428 | 83 | 69 | 0.0 | 2.0 | 0.00 | 0.00 | 0.00 | 67 | 1010.9 |
| 20260906024927 | 83 | 58 | 1.0 | 2.0 | 0.00 | 0.00 | 0.00 | 67 | 1010.7 |
| 20260906024426 | 83 | 39 | 1.0 | 2.0 | 0.00 | 0.00 | 0.00 | 68 | 1010.9 |
| 20260906023922 | 83 | 61 | 2.0 | 2.0 | 0.00 | 0.00 | 0.00 | 67 | 1010.5 |
| 20260906023418 | 83 | 7 | 0.0 | 2.0 | 0.00 | 0.00 | 0.00 | 69 | 1010.5 |
| 20260906022918 | 84 | 274 | 0.0 | 2.0 | 0.00 | 0.00 | 0.00 | 65 | 1010.2 |
| 20260906022413 | 84 | 44 | 2.0 | 2.0 | 0.00 | 0.00 | 0.00 | 66 | 1010.0 |
| 20260906021908 | 84 | 118 | 2.0 | 2.0 | 0.00 | 0.00 | 0.00 | 64 | 1010.2 |
| 20260906021409 | 85 | 99 | 2.0 | 2.0 | 0.00 | 0.00 | 0.00 | 63 | 1010.3 |
| 20260906020903 | 85 | 246 | 0.0 | 0.0 | 0.00 | 0.00 | 0.00 | 61 | 1010.5 |
| 20260906020403 | 85 | 81 | 0.0 | 2.0 | 0.00 | 0.00 | 0.00 | 61 | 1010.5 |
| 20260906015857 | 85 | 4 | 2.0 | 3.0 | 0.00 | 0.00 | 0.00 | 61 | 1010.5 |
| 20260906015356 | 85 | 17 | 1.0 | 3.0 | 0.00 | 0.00 | 0.00 | 60 | 1009.9 |
| 20260906014856 | 85 | 346 | 2.0 | 3.0 | 0.00 | 0.00 | 0.00 | 60 | 1010.1 |
| 20260906014356 | 85 | 356 | 2.0 | 2.0 | 0.00 | 0.00 | 0.00 | 59 | 1009.6 |
| 20260906013853 | 85 | 15 | 2.0 | 2.0 | 0.00 | 0.00 | 0.00 | 60 | 1009.7 |
| 20260906013348 | 85 | 69 | 0.0 | 2.0 | 0.00 | 0.00 | 0.00 | 60 | 1009.7 |
| 20260906012843 | 85 | 128 | 0.0 | 2.0 | 0.00 | 0.00 | 0.00 | 62 | 1010.0 |
| 20260906012338 | 85 | 174 | 1.0 | 2.0 | 0.00 | 0.00 | 0.00 | 61 | 1009.8 |
| 20260906011838 | 84 | 63 | 0.0 | 2.0 | 0.00 | 0.00 | 0.00 | 63 | 1010.0 |
| 20260906011333 | 84 | 126 | 1.0 | 2.0 | 0.00 | 0.00 | 0.00 | 63 | 1010.0 |
| 20260906010829 | 85 | 11 | 0.0 | 2.0 | 0.00 | 0.00 | 0.00 | 62 | 1009.9 |
| 20260906010325 | 85 | 117 | 0.0 | 1.0 | 0.00 | 0.00 | 0.00 | 60 | 1009.6 |
| 20260906005820 | 86 | 351 | 0.0 | 2.0 | 0.00 | 0.00 | 0.00 | 60 | 1009.6 |
| 20260906005319 | 86 | 302 | 0.0 | 2.0 | 0.00 | 0.00 | 0.00 | 61 | 1009.5 |
| 20260906004818 | 86 | 21 | 0.0 | 2.0 | 0.00 | 0.00 | 0.00 | 59 | 1009.6 |
| 20260906004318 | 86 | 64 | 5.0 | 6.0 | 0.00 | 0.00 | 0.00 | 59 | 1009.9 |
| 20260906003813 | 86 | 0 | 0.0 | 2.0 | 0.00 | 0.00 | 0.00 | 59 | 1009.9 |
| 20260906003308 | 87 | 83 | 2.0 | 5.0 | 0.00 | 0.00 | 0.00 | 58 | 1010.0 |
| 20260906002804 | 87 | 86 | 1.0 | 8.0 | 0.00 | 0.00 | 0.00 | 57 | 1010.2 |
| 20260906002306 | 88 | 30 | 2.0 | 9.0 | 0.00 | 0.00 | 0.00 | 57 | 1010.0 |
| 20260906001759 | 89 | 46 | 4.0 | 7.0 | 0.00 | 0.00 | 0.00 | 58 | 1010.2 |
| 20260906001254 | 89 | 42 | 5.0 | 11.0 | 0.00 | 0.00 | 0.00 | 60 | 1010.0 |
| 20260906000750 | 90 | 100 | 6.0 | 9.0 | 0.00 | 0.00 | 0.00 | 59 | 1010.2 |
| 20260906000250 | 91 | 54 | 6.0 | 8.0 | 0.00 | 0.00 | 0.00 | 58 | 1010.0 |
| 20260905235745 | 92 | 52 | 2.0 | 9.0 | 0.00 | 0.00 | 0.00 | 57 | 1010.0 |
| 20260905235244 | 94 | 27 | 6.0 | 13.0 | 0.00 | 0.00 | 0.00 | 54 | 1010.1 |
| 20260905234740 | 95 | 57 | 2.0 | 3.0 | 0.00 | 0.00 | 0.00 | 53 | 1009.7 |
| 20260905234235 | 96 | 57 | 0.0 | 2.0 | 0.00 | 0.00 | 0.00 | 50 | 1009.5 |
| 20260905233730 | 96 | 8 | 1.0 | 2.0 | 0.00 | 0.00 | 0.00 | 51 | 1009.3 |
| 20260905233230 | 96 | 323 | 0.0 | 1.0 | 0.00 | 0.00 | 0.00 | 49 | 1009.4 |
| 20260905232724 | 96 | 279 | 1.0 | 3.0 | 0.00 | 0.00 | 0.00 | 47 | 1009.3 |
| 20260905232220 | 96 | 335 | 0.0 | 3.0 | 0.00 | 0.00 | 0.00 | 47 | 1009.2 |
| 20260905231716 | 96 | 327 | 2.0 | 2.0 | 0.00 | 0.00 | 0.00 | 48 | 1009.1 |
| 20260905231211 | 96 | 264 | 2.0 | 3.0 | 0.00 | 0.00 | 0.00 | 46 | 1009.1 |
| 20260905230707 | 96 | 252 | 1.0 | 3.0 | 0.00 | 0.00 | 0.00 | 46 | 1009.1 |
| 20260905230205 | 97 | 279 | 2.0 | 5.0 | 0.00 | 0.00 | 0.00 | 46 | 1009.1 |
| 20260905225705 | 97 | 278 | 2.0 | 3.0 | 0.00 | 0.00 | 0.00 | 46 | 1009.2 |
| 20260905225200 | 97 | 263 | 1.0 | 4.0 | 0.00 | 0.00 | 0.00 | 45 | 1009.2 |
| 20260905224659 | 98 | 257 | 0.0 | 3.0 | 0.00 | 0.00 | 0.00 | 44 | 1009.1 |
| 20260905224153 | 98 | 271 | 1.0 | 3.0 | 0.00 | 0.00 | 0.00 | 44 | 1009.1 |
| 20260905223650 | 98 | 315 | 3.0 | 4.0 | 0.00 | 0.00 | 0.00 | 43 | 1009.2 |
| 20260905223148 | 98 | 277 | 0.0 | 2.0 | 0.00 | 0.00 | 0.00 | 43 | 1009.1 |
| 20260905222643 | 98 | 328 | 0.0 | 3.0 | 0.00 | 0.00 | 0.00 | 43 | 1009.1 |
| 20260905222143 | 99 | 254 | 2.0 | 3.0 | 0.00 | 0.00 | 0.00 | 42 | 1009.2 |
| 20260905221638 | 99 | 307 | 1.0 | 2.0 | 0.00 | 0.00 | 0.00 | 44 | 1008.9 |
| 20260905221135 | 100 | 226 | 3.0 | 6.0 | 0.00 | 0.00 | 0.00 | 40 | 1009.0 |
| 20260905220630 | 101 | 272 | 2.0 | 4.0 | 0.00 | 0.00 | 0.00 | 40 | 1009.2 |
| 20260905220126 | 101 | 242 | 1.0 | 4.0 | 0.00 | 0.00 | 0.00 | 39 | 1009.3 |
| 20260905215626 | 102 | 231 | 3.0 | 3.0 | 0.00 | 0.00 | 0.00 | 38 | 1009.1 |
| 20260905215121 | 102 | 298 | 2.0 | 3.0 | 0.00 | 0.00 | 0.00 | 39 | 1009.2 |
| 20260905214618 | 102 | 267 | 4.0 | 4.0 | 0.00 | 0.00 | 0.00 | 38 | 1009.0 |
| 20260905214117 | 102 | 14 | 0.0 | 5.0 | 0.00 | 0.00 | 0.00 | 40 | 1009.2 |
| 20260905213613 | 102 | 276 | 2.0 | 5.0 | 0.00 | 0.00 | 0.00 | 38 | 1009.2 |
| 20260905213108 | 103 | 304 | 4.0 | 4.0 | 0.00 | 0.00 | 0.00 | 37 | 1009.2 |
| 20260905212609 | 103 | 245 | 2.0 | 3.0 | 0.00 | 0.00 | 0.00 | 39 | 1009.2 |
| 20260905212108 | 102 | 221 | 2.0 | 5.0 | 0.00 | 0.00 | 0.00 | 40 | 1009.2 |
| 20260905211603 | 102 | 281 | 2.0 | 4.0 | 0.00 | 0.00 | 0.00 | 41 | 1009.4 |
| 20260905211059 | 103 | 263 | 5.0 | 6.0 | 0.00 | 0.00 | 0.00 | 39 | 1009.5 |
| 20260905210554 | 103 | 266 | 2.0 | 3.0 | 0.00 | 0.00 | 0.00 | 40 | 1009.4 |
| 20260905210049 | 102 | 217 | 0.0 | 4.0 | 0.00 | 0.00 | 0.00 | 40 | 1009.6 |
| 20260905205549 | 101 | 273 | 3.0 | 5.0 | 0.00 | 0.00 | 0.00 | 42 | 1009.7 |
| 20260905205048 | 101 | 262 | 2.0 | 5.0 | 0.00 | 0.00 | 0.00 | 41 | 1009.6 |
| 20260905204543 | 101 | 233 | 2.0 | 4.0 | 0.00 | 0.00 | 0.00 | 42 | 1009.6 |
| 20260905204038 | 101 | 223 | 2.0 | 5.0 | 0.00 | 0.00 | 0.00 | 41 | 1009.6 |
| 20260905203538 | 101 | 263 | 3.0 | 6.0 | 0.00 | 0.00 | 0.00 | 40 | 1009.8 |
| 20260905203033 | 102 | 214 | 1.0 | 5.0 | 0.00 | 0.00 | 0.00 | 41 | 1009.8 |
| 20260905202528 | 103 | 271 | 1.0 | 5.0 | 0.00 | 0.00 | 0.00 | 41 | 1010.0 |
| 20260905202024 | 102 | 223 | 2.0 | 4.0 | 0.00 | 0.00 | 0.00 | 39 | 1009.9 |
| 20260905201520 | 101 | 229 | 1.0 | 5.0 | 0.00 | 0.00 | 0.00 | 40 | 1010.0 |
| 20260905201019 | 101 | 265 | 3.0 | 6.0 | 0.00 | 0.00 | 0.00 | 41 | 1009.9 |
| 20260905200515 | 102 | 240 | 2.0 | 8.0 | 0.00 | 0.00 | 0.00 | 40 | 1010.3 |
| 20260905200015 | 103 | 275 | 3.0 | 5.0 | 0.00 | 0.00 | 0.00 | 40 | 1010.3 |
| 20260905195514 | 102 | 302 | 0.0 | 3.0 | 0.00 | 0.00 | 0.00 | 42 | 1010.6 |
| 20260905195010 | 102 | 226 | 1.0 | 3.0 | 0.00 | 0.00 | 0.00 | 42 | 1010.6 |
| 20260905194509 | 101 | 230 | 3.0 | 6.0 | 0.00 | 0.00 | 0.00 | 43 | 1010.6 |
| 20260905194009 | 101 | 238 | 2.0 | 6.0 | 0.00 | 0.00 | 0.00 | 42 | 1010.7 |
| 20260905193504 | 101 | 216 | 3.0 | 6.0 | 0.00 | 0.00 | 0.00 | 42 | 1010.8 |
| 20260905192959 | 101 | 226 | 1.0 | 4.0 | 0.00 | 0.00 | 0.00 | 43 | 1010.6 |
| 20260905192454 | 100 | 177 | 2.0 | 5.0 | 0.00 | 0.00 | 0.00 | 43 | 1010.9 |
| 20260905191950 | 101 | 221 | 6.0 | 6.0 | 0.00 | 0.00 | 0.00 | 41 | 1010.8 |
| 20260905191444 | 101 | 307 | 1.0 | 2.0 | 0.00 | 0.00 | 0.00 | 43 | 1010.9 |
| 20260905190943 | 100 | 189 | 1.0 | 6.0 | 0.00 | 0.00 | 0.00 | 44 | 1011.0 |
| 20260905190441 | 100 | 148 | 1.0 | 4.0 | 0.00 | 0.00 | 0.00 | 45 | 1011.2 |
| 20260905185940 | 99 | 295 | 3.0 | 4.0 | 0.00 | 0.00 | 0.00 | 46 | 1011.0 |
| 20260905185435 | 99 | 266 | 2.0 | 3.0 | 0.00 | 0.00 | 0.00 | 46 | 1011.1 |
| 20260905184933 | 100 | 262 | 4.0 | 5.0 | 0.00 | 0.00 | 0.00 | 45 | 1011.3 |
| 20260905184428 | 100 | 138 | 2.0 | 4.0 | 0.00 | 0.00 | 0.00 | 46 | 1011.5 |
| 20260905183927 | 98 | 255 | 0.0 | 4.0 | 0.00 | 0.00 | 0.00 | 47 | 1011.3 |
| 20260905183422 | 99 | 14 | 3.0 | 7.0 | 0.00 | 0.00 | 0.00 | 46 | 1011.6 |
| 20260905182917 | 99 | 127 | 0.0 | 4.0 | 0.00 | 0.00 | 0.00 | 49 | 1011.8 |
| 20260905182416 | 99 | 10 | 0.0 | 3.0 | 0.00 | 0.00 | 0.00 | 47 | 1011.9 |
| 20260905181912 | 99 | 102 | 0.0 | 2.0 | 0.00 | 0.00 | 0.00 | 48 | 1011.9 |
| 20260905181412 | 99 | 247 | 1.0 | 3.0 | 0.00 | 0.00 | 0.00 | 49 | 1012.0 |
| 20260905180911 | 99 | 124 | 3.0 | 3.0 | 0.00 | 0.00 | 0.00 | 48 | 1012.1 |
| 20260905180407 | 98 | 260 | 2.0 | 2.0 | 0.00 | 0.00 | 0.00 | 50 | 1012.1 |
| 20260905175907 | 98 | 86 | 0.0 | 5.0 | 0.00 | 0.00 | 0.00 | 49 | 1012.1 |
| 20260905175407 | 98 | 218 | 0.0 | 4.0 | 0.00 | 0.00 | 0.00 | 48 | 1012.0 |
| 20260905174907 | 97 | 265 | 0.0 | 4.0 | 0.00 | 0.00 | 0.00 | 52 | 1012.2 |
| 20260905174403 | 97 | 231 | 3.0 | 4.0 | 0.00 | 0.00 | 0.00 | 50 | 1012.3 |
| 20260905173858 | 98 | 216 | 4.0 | 5.0 | 0.00 | 0.00 | 0.00 | 51 | 1012.3 |
| 20260905173354 | 98 | 123 | 1.0 | 4.0 | 0.00 | 0.00 | 0.00 | 51 | 1012.3 |
| 20260905172849 | 98 | 357 | 0.0 | 3.0 | 0.00 | 0.00 | 0.00 | 50 | 1012.4 |
| 20260905172347 | 97 | 316 | 0.0 | 3.0 | 0.00 | 0.00 | 0.00 | 52 | 1012.5 |
| 20260905171843 | 97 | 286 | 3.0 | 4.0 | 0.00 | 0.00 | 0.00 | 53 | 1012.5 |
| 20260905171340 | 97 | 246 | 1.0 | 4.0 | 0.00 | 0.00 | 0.00 | 55 | 1012.4 |
| 20260905170836 | 96 | 256 | 1.0 | 4.0 | 0.00 | 0.00 | 0.00 | 54 | 1012.7 |
| 20260905170332 | 95 | 219 | 4.0 | 4.0 | 0.00 | 0.00 | 0.00 | 54 | 1012.5 |
| 20260905165831 | 95 | 218 | 3.0 | 5.0 | 0.00 | 0.00 | 0.00 | 54 | 1012.5 |
| 20260905165326 | 95 | 280 | 3.0 | 4.0 | 0.00 | 0.00 | 0.00 | 54 | 1012.8 |
| 20260905164827 | 95 | 185 | 1.0 | 4.0 | 0.00 | 0.00 | 0.00 | 54 | 1012.8 |
| 20260905164326 | 95 | 259 | 3.0 | 4.0 | 0.00 | 0.00 | 0.00 | 56 | 1012.9 |
| 20260905163822 | 94 | 217 | 0.0 | 3.0 | 0.00 | 0.00 | 0.00 | 55 | 1013.0 |
| 20260905163319 | 93 | 225 | 3.0 | 5.0 | 0.00 | 0.00 | 0.00 | 57 | 1013.0 |
| 20260905162814 | 93 | 274 | 2.0 | 3.0 | 0.00 | 0.00 | 0.00 | 56 | 1013.1 |
| 20260905162309 | 93 | 269 | 2.0 | 3.0 | 0.00 | 0.00 | 0.00 | 57 | 1013.2 |
| 20260905161809 | 93 | 211 | 2.0 | 4.0 | 0.00 | 0.00 | 0.00 | 58 | 1013.1 |
| 20260905161308 | 92 | 234 | 2.0 | 3.0 | 0.00 | 0.00 | 0.00 | 61 | 1013.3 |
| 20260905160806 | 92 | 279 | 2.0 | 4.0 | 0.00 | 0.00 | 0.00 | 61 | 1013.3 |
| 20260905160300 | 92 | 258 | 2.0 | 4.0 | 0.00 | 0.00 | 0.00 | 59 | 1013.4 |
| 20260905155755 | 91 | 286 | 2.0 | 3.0 | 0.00 | 0.00 | 0.00 | 61 | 1013.4 |
| 20260905155254 | 91 | 303 | 1.0 | 4.0 | 0.00 | 0.00 | 0.00 | 61 | 1013.4 |
| 20260905154748 | 90 | 104 | 0.0 | 2.0 | 0.00 | 0.00 | 0.00 | 66 | 1013.6 |
| 20260905154245 | 89 | 319 | 0.0 | 4.0 | 0.00 | 0.00 | 0.00 | 64 | 1013.5 |
| 20260905153740 | 89 | 264 | 0.0 | 3.0 | 0.00 | 0.00 | 0.00 | 67 | 1013.5 |
| 20260905153236 | 88 | 110 | 2.0 | 2.0 | 0.00 | 0.00 | 0.00 | 69 | 1013.8 |
| 20260905152731 | 88 | 294 | 0.0 | 2.0 | 0.00 | 0.00 | 0.00 | 71 | 1013.7 |
| 20260905152230 | 88 | 129 | 2.0 | 3.0 | 0.00 | 0.00 | 0.00 | 68 | 1013.7 |
| 20260905151730 | 88 | 124 | 0.0 | 3.0 | 0.00 | 0.00 | 0.00 | 70 | 1013.5 |
| 20260905151226 | 87 | 119 | 2.0 | 3.0 | 0.00 | 0.00 | 0.00 | 72 | 1013.6 |
| 20260905150721 | 85 | 106 | 0.0 | 2.0 | 0.00 | 0.00 | 0.00 | 76 | 1013.7 |
| 20260905150220 | 84 | 221 | 0.0 | 1.0 | 0.00 | 0.00 | 0.00 | 79 | 1013.8 |
| 20260905145718 | 84 | 126 | 0.0 | 2.0 | 0.00 | 0.00 | 0.00 | 80 | 1013.8 |
| 20260905145213 | 83 | 295 | 2.0 | 2.0 | 0.00 | 0.00 | 0.00 | 79 | 1013.6 |
| 20260905144712 | 84 | 302 | 0.0 | 2.0 | 0.00 | 0.00 | 0.00 | 80 | 1013.7 |
| 20260905144211 | 84 | 265 | 0.0 | 2.0 | 0.00 | 0.00 | 0.00 | 80 | 1013.9 |
| 20260905143706 | 84 | 340 | 2.0 | 2.0 | 0.00 | 0.00 | 0.00 | 77 | 1013.8 |
| 20260905143206 | 84 | 340 | 2.0 | 2.0 | 0.00 | 0.00 | 0.00 | 77 | 1013.8 |
| 20260905142704 | 84 | 64 | 0.0 | 2.0 | 0.00 | 0.00 | 0.00 | 78 | 1013.7 |
| 20260905142205 | 84 | 333 | 0.0 | 1.0 | 0.00 | 0.00 | 0.00 | 80 | 1013.8 |
| 20260905141700 | 83 | 330 | 1.0 | 2.0 | 0.00 | 0.00 | 0.00 | 80 | 1013.8 |
| 20260905141156 | 83 | 53 | 0.0 | 1.0 | 0.00 | 0.00 | 0.00 | 82 | 1013.9 |
| 20260905140651 | 83 | 275 | 0.0 | 2.0 | 0.00 | 0.00 | 0.00 | 82 | 1013.9 |
| 20260905140150 | 82 | 116 | 1.0 | 2.0 | 0.00 | 0.00 | 0.00 | 82 | 1013.9 |
| 20260905135646 | 82 | 55 | 0.0 | 1.0 | 0.00 | 0.00 | 0.00 | 82 | 1013.8 |
| 20260905135141 | 82 | 118 | 2.0 | 2.0 | 0.00 | 0.00 | 0.00 | 83 | 1013.8 |
| 20260905134635 | 82 | 141 | 0.0 | 2.0 | 0.00 | 0.00 | 0.00 | 83 | 1013.8 |
| 20260905134134 | 82 | 94 | 1.0 | 2.0 | 0.00 | 0.00 | 0.00 | 85 | 1013.8 |
| 20260905133630 | 82 | 97 | 1.0 | 2.0 | 0.00 | 0.00 | 0.00 | 85 | 1014.0 |
| 20260905133130 | 81 | 77 | 1.0 | 2.0 | 0.00 | 0.00 | 0.00 | 85 | 1013.8 |
| 20260905132630 | 81 | 85 | 1.0 | 2.0 | 0.00 | 0.00 | 0.00 | 85 | 1013.8 |
| 20260905132125 | 81 | 100 | 0.0 | 2.0 | 0.00 | 0.00 | 0.00 | 86 | 1013.7 |
| 20260905131620 | 81 | 95 | 1.0 | 2.0 | 0.00 | 0.00 | 0.00 | 86 | 1013.8 |
| 20260905131115 | 81 | 131 | 1.0 | 2.0 | 0.00 | 0.00 | 0.00 | 86 | 1013.9 |
| 20260905130614 | 81 | 99 | 1.0 | 3.0 | 0.00 | 0.00 | 0.00 | 86 | 1014.0 |
| 20260905130109 | 80 | 103 | 1.0 | 2.0 | 0.00 | 0.00 | 0.00 | 87 | 1013.9 |
| 20260905125609 | 80 | 112 | 1.0 | 2.0 | 0.00 | 0.00 | 0.00 | 88 | 1013.8 |
| 20260905125104 | 80 | 100 | 2.0 | 2.0 | 0.00 | 0.00 | 0.00 | 90 | 1014.0 |
| 20260905124601 | 80 | 96 | 1.0 | 2.0 | 0.00 | 0.00 | 0.00 | 92 | 1014.0 |
| 20260905124056 | 79 | 98 | 0.0 | 1.0 | 0.00 | 0.00 | 0.00 | 93 | 1013.9 |
| 20260905123551 | 79 | 49 | 0.0 | 1.0 | 0.00 | 0.00 | 0.00 | 94 | 1014.0 |
| 20260905123049 | 78 | 89 | 0.0 | 2.0 | 0.00 | 0.00 | 0.00 | 95 | 1013.9 |
| 20260905122548 | 78 | 53 | 0.0 | 2.0 | 0.00 | 0.00 | 0.00 | 96 | 1013.7 |
| 20260905122043 | 78 | 60 | 1.0 | 2.0 | 0.00 | 0.00 | 0.00 | 97 | 1013.6 |
| 20260905121538 | 77 | 54 | 1.0 | 2.0 | 0.00 | 0.00 | 0.00 | 97 | 1013.8 |
| 20260905121033 | 77 | 61 | 1.0 | 2.0 | 0.00 | 0.00 | 0.00 | 96 | 1013.6 |
| 20260905120532 | 77 | 72 | 0.0 | 2.0 | 0.00 | 0.00 | 0.00 | 97 | 1013.6 |
| 20260905120028 | 77 | 66 | 1.0 | 2.0 | 0.00 | 0.00 | 0.00 | 96 | 1013.6 |
| 20260905115526 | 76 | 44 | 2.0 | 2.0 | 0.00 | 0.00 | 0.00 | 96 | 1013.5 |
| 20260905115021 | 76 | 81 | 0.0 | 2.0 | 0.00 | 0.00 | 0.00 | 96 | 1013.4 |
| 20260905114521 | 76 | 68 | 0.0 | 2.0 | 0.00 | 0.00 | 0.00 | 96 | 1013.3 |
| 20260905114020 | 76 | 85 | 1.0 | 2.0 | 0.00 | 0.00 | 0.00 | 96 | 1013.4 |
| 20260905113515 | 76 | 89 | 0.0 | 2.0 | 0.00 | 0.00 | 0.00 | 96 | 1013.3 |
| 20260905113011 | 76 | 65 | 1.0 | 2.0 | 0.00 | 0.00 | 0.00 | 96 | 1013.2 |